owner,sensor,date,latitude,longitude,sea_surface_height_above_sea_level,qcFlag 
TCOON,ioos:station:TCOON:524:1,2015-01-01T00:42:00Z,29.8672,-93.9310,1.661,1111122 
TCOON,ioos:station:TCOON:524:1,2015-01-01T01:42:00Z,29.8672,-93.9310,1.622,1111122 
TCOON,ioos:station:TCOON:524:1,2015-01-01T02:48:00Z,29.8672,-93.9310,1.603,1111122 
TCOON,ioos:station:TCOON:524:1,2015-01-01T03:42:00Z,29.8672,-93.9310,1.601,1111122 
TCOON,ioos:station:TCOON:524:1,2015-01-01T04:42:00Z,29.8672,-93.9310,1.614,1111122 
TCOON,ioos:station:TCOON:524:1,2015-01-01T05:42:00Z,29.8672,-93.9310,1.621,1111122 
TCOON,ioos:station:TCOON:524:1,2015-01-01T06:42:00Z,29.8672,-93.9310,1.609,1111122 
TCOON,ioos:station:TCOON:524:1,2015-01-01T07:54:00Z,29.8672,-93.9310,1.638,1111122 
TCOON,ioos:station:TCOON:524:1,2015-01-01T08:36:00Z,29.8672,-93.9310,1.613,1111122 
TCOON,ioos:station:TCOON:524:1,2015-01-01T09:42:00Z,29.8672,-93.9310,1.583,1111122 
TCOON,ioos:station:TCOON:524:1,2015-01-01T10:36:00Z,29.8672,-93.9310,1.522,1111122 
TCOON,ioos:station:TCOON:524:1,2015-01-01T11:54:00Z,29.8672,-93.9310,1.474,1111122 
TCOON,ioos:station:TCOON:524:1,2015-01-01T12:48:00Z,29.8672,-93.9310,1.441,1111122 
TCOON,ioos:station:TCOON:524:1,2015-01-01T13:48:00Z,29.8672,-93.9310,1.398,1111122 
TCOON,ioos:station:TCOON:524:1,2015-01-01T14:48:00Z,29.8672,-93.9310,1.426,1111122 
TCOON,ioos:station:TCOON:524:1,2015-01-01T15:54:00Z,29.8672,-93.9310,1.432,1111122 
TCOON,ioos:station:TCOON:524:1,2015-01-01T16:54:00Z,29.8672,-93.9310,1.439,1111122 
TCOON,ioos:station:TCOON:524:1,2015-01-01T17:42:00Z,29.8672,-93.9310,1.471,1111122 
TCOON,ioos:station:TCOON:524:1,2015-01-01T18:48:00Z,29.8672,-93.9310,1.565,1111122 
TCOON,ioos:station:TCOON:524:1,2015-01-01T19:48:00Z,29.8672,-93.9310,1.624,1111122 
TCOON,ioos:station:TCOON:524:1,2015-01-01T20:42:00Z,29.8672,-93.9310,1.652,1111122 
TCOON,ioos:station:TCOON:524:1,2015-01-01T21:48:00Z,29.8672,-93.9310,1.614,1111122 
TCOON,ioos:station:TCOON:524:1,2015-01-01T22:48:00Z,29.8672,-93.9310,1.711,1111122 
TCOON,ioos:station:TCOON:524:1,2015-01-01T23:48:00Z,29.8672,-93.9310,1.719,1111122 
TCOON,ioos:station:TCOON:524:1,2015-01-02T00:36:00Z,29.8672,-93.9310,1.74,1111122 
TCOON,ioos:station:TCOON:524:1,2015-01-02T01:48:00Z,29.8672,-93.9310,1.774,1111122 
TCOON,ioos:station:TCOON:524:1,2015-01-02T02:48:00Z,29.8672,-93.9310,1.784,1111122 
TCOON,ioos:station:TCOON:524:1,2015-01-02T03:36:00Z,29.8672,-93.9310,1.801,1111122 
TCOON,ioos:station:TCOON:524:1,2015-01-02T04:42:00Z,29.8672,-93.9310,1.805,1111122 
TCOON,ioos:station:TCOON:524:1,2015-01-02T05:48:00Z,29.8672,-93.9310,1.815,1111122 
TCOON,ioos:station:TCOON:524:1,2015-01-02T07:18:00Z,29.8672,-93.9310,1.85,1111122 
TCOON,ioos:station:TCOON:524:1,2015-01-02T08:48:00Z,29.8672,-93.9310,1.817,1111122 
TCOON,ioos:station:TCOON:524:1,2015-01-02T09:42:00Z,29.8672,-93.9310,1.78,1111122 
TCOON,ioos:station:TCOON:524:1,2015-01-02T10:42:00Z,29.8672,-93.9310,1.74,1111122 
TCOON,ioos:station:TCOON:524:1,2015-01-02T11:42:00Z,29.8672,-93.9310,1.637,1111122 
TCOON,ioos:station:TCOON:524:1,2015-01-02T12:36:00Z,29.8672,-93.9310,1.561,1111122 
TCOON,ioos:station:TCOON:524:1,2015-01-02T13:36:00Z,29.8672,-93.9310,1.495,1111122 
TCOON,ioos:station:TCOON:524:1,2015-01-02T14:42:00Z,29.8672,-93.9310,1.458,1111122 
TCOON,ioos:station:TCOON:524:1,2015-01-02T15:48:00Z,29.8672,-93.9310,1.424,1111122 
TCOON,ioos:station:TCOON:524:1,2015-01-02T16:42:00Z,29.8672,-93.9310,1.46,1111122 
TCOON,ioos:station:TCOON:524:1,2015-01-02T17:48:00Z,29.8672,-93.9310,1.518,1111122 
TCOON,ioos:station:TCOON:524:1,2015-01-02T18:48:00Z,29.8672,-93.9310,1.583,1111122 
TCOON,ioos:station:TCOON:524:1,2015-01-02T19:42:00Z,29.8672,-93.9310,1.641,1111122 
TCOON,ioos:station:TCOON:524:1,2015-01-02T20:54:00Z,29.8672,-93.9310,1.711,1111122 
TCOON,ioos:station:TCOON:524:1,2015-01-02T21:48:00Z,29.8672,-93.9310,1.727,1111122 
TCOON,ioos:station:TCOON:524:1,2015-01-02T22:48:00Z,29.8672,-93.9310,1.745,1111122 
TCOON,ioos:station:TCOON:524:1,2015-01-02T23:48:00Z,29.8672,-93.9310,1.761,1111122 
TCOON,ioos:station:TCOON:524:1,2015-01-03T00:48:00Z,29.8672,-93.9310,1.76,1111122 
TCOON,ioos:station:TCOON:524:1,2015-01-03T01:36:00Z,29.8672,-93.9310,1.769,1111122 
TCOON,ioos:station:TCOON:524:1,2015-01-03T03:00:00Z,29.8672,-93.9310,1.772,1111122 
TCOON,ioos:station:TCOON:524:1,2015-01-03T03:54:00Z,29.8672,-93.9310,1.779,1111122 
TCOON,ioos:station:TCOON:524:1,2015-01-03T04:42:00Z,29.8672,-93.9310,1.804,1111122 
TCOON,ioos:station:TCOON:524:1,2015-01-03T05:42:00Z,29.8672,-93.9310,1.805,1111122 
TCOON,ioos:station:TCOON:524:1,2015-01-03T06:54:00Z,29.8672,-93.9310,1.83,1111122 
TCOON,ioos:station:TCOON:524:1,2015-01-03T07:48:00Z,29.8672,-93.9310,1.851,1111122 
TCOON,ioos:station:TCOON:524:1,2015-01-03T08:42:00Z,29.8672,-93.9310,1.849,1111122 
TCOON,ioos:station:TCOON:524:1,2015-01-03T09:42:00Z,29.8672,-93.9310,1.834,1111122 
TCOON,ioos:station:TCOON:524:1,2015-01-03T10:42:00Z,29.8672,-93.9310,1.798,1111122 
TCOON,ioos:station:TCOON:524:1,2015-01-03T11:36:00Z,29.8672,-93.9310,1.747,1111122 
TCOON,ioos:station:TCOON:524:1,2015-01-03T12:42:00Z,29.8672,-93.9310,1.653,1111122 
TCOON,ioos:station:TCOON:524:1,2015-01-03T13:42:00Z,29.8672,-93.9310,1.552,1111122 
TCOON,ioos:station:TCOON:524:1,2015-01-03T14:42:00Z,29.8672,-93.9310,1.507,1111122 
TCOON,ioos:station:TCOON:524:1,2015-01-03T15:42:00Z,29.8672,-93.9310,1.51,1111122 
TCOON,ioos:station:TCOON:524:1,2015-01-03T16:48:00Z,29.8672,-93.9310,1.511,1111122 
TCOON,ioos:station:TCOON:524:1,2015-01-03T17:48:00Z,29.8672,-93.9310,1.507,1111122 
TCOON,ioos:station:TCOON:524:1,2015-01-03T19:42:00Z,29.8672,-93.9310,1.644,1111122 
TCOON,ioos:station:TCOON:524:1,2015-01-03T20:42:00Z,29.8672,-93.9310,1.734,1111122 
TCOON,ioos:station:TCOON:524:1,2015-01-03T21:48:00Z,29.8672,-93.9310,1.748,1111122 
TCOON,ioos:station:TCOON:524:1,2015-01-03T22:42:00Z,29.8672,-93.9310,1.772,1111122 
TCOON,ioos:station:TCOON:524:1,2015-01-03T23:42:00Z,29.8672,-93.9310,1.796,1111122 
TCOON,ioos:station:TCOON:524:1,2015-01-04T00:42:00Z,29.8672,-93.9310,1.795,1111122 
TCOON,ioos:station:TCOON:524:1,2015-01-04T01:48:00Z,29.8672,-93.9310,1.817,1111122 
TCOON,ioos:station:TCOON:524:1,2015-01-04T02:42:00Z,29.8672,-93.9310,1.793,1111122 
TCOON,ioos:station:TCOON:524:1,2015-01-04T03:48:00Z,29.8672,-93.9310,1.785,1111122 
TCOON,ioos:station:TCOON:524:1,2015-01-04T04:48:00Z,29.8672,-93.9310,1.752,1111122 
TCOON,ioos:station:TCOON:524:1,2015-01-04T05:42:00Z,29.8672,-93.9310,1.771,1111122 
TCOON,ioos:station:TCOON:524:1,2015-01-04T07:18:00Z,29.8672,-93.9310,1.74,1111122 
TCOON,ioos:station:TCOON:524:1,2015-01-04T08:42:00Z,29.8672,-93.9310,1.724,1111122 
TCOON,ioos:station:TCOON:524:1,2015-01-04T09:42:00Z,29.8672,-93.9310,1.688,1111122 
TCOON,ioos:station:TCOON:524:1,2015-01-04T10:48:00Z,29.8672,-93.9310,1.649,1111122 
TCOON,ioos:station:TCOON:524:1,2015-01-04T11:42:00Z,29.8672,-93.9310,1.551,1111122 
TCOON,ioos:station:TCOON:524:1,2015-01-04T12:48:00Z,29.8672,-93.9310,1.453,1111122 
TCOON,ioos:station:TCOON:524:1,2015-01-04T13:42:00Z,29.8672,-93.9310,1.372,1111122 
TCOON,ioos:station:TCOON:524:1,2015-01-04T14:42:00Z,29.8672,-93.9310,1.338,1111122 
TCOON,ioos:station:TCOON:524:1,2015-01-04T15:42:00Z,29.8672,-93.9310,1.321,1111122 
TCOON,ioos:station:TCOON:524:1,2015-01-04T16:36:00Z,29.8672,-93.9310,1.273,1111122 
TCOON,ioos:station:TCOON:524:1,2015-01-04T17:48:00Z,29.8672,-93.9310,1.217,1111122 
TCOON,ioos:station:TCOON:524:1,2015-01-04T18:42:00Z,29.8672,-93.9310,1.233,1111122 
TCOON,ioos:station:TCOON:524:1,2015-01-04T19:36:00Z,29.8672,-93.9310,1.257,1111122 
TCOON,ioos:station:TCOON:524:1,2015-01-04T20:48:00Z,29.8672,-93.9310,1.344,1111122 
TCOON,ioos:station:TCOON:524:1,2015-01-04T21:48:00Z,29.8672,-93.9310,1.304,1111122 
TCOON,ioos:station:TCOON:524:1,2015-01-04T22:48:00Z,29.8672,-93.9310,1.477,1111122 
TCOON,ioos:station:TCOON:524:1,2015-01-04T23:42:00Z,29.8672,-93.9310,1.469,1111122 
TCOON,ioos:station:TCOON:524:1,2015-01-05T00:42:00Z,29.8672,-93.9310,1.495,1111122 
TCOON,ioos:station:TCOON:524:1,2015-01-05T01:42:00Z,29.8672,-93.9310,1.488,1111122 
TCOON,ioos:station:TCOON:524:1,2015-01-05T02:48:00Z,29.8672,-93.9310,1.489,1111122 
TCOON,ioos:station:TCOON:524:1,2015-01-05T03:36:00Z,29.8672,-93.9310,1.471,1111122 
TCOON,ioos:station:TCOON:524:1,2015-01-05T04:48:00Z,29.8672,-93.9310,1.382,1111122 
TCOON,ioos:station:TCOON:524:1,2015-01-05T05:42:00Z,29.8672,-93.9310,1.332,1111122 
TCOON,ioos:station:TCOON:524:1,2015-01-05T06:54:00Z,29.8672,-93.9310,1.372,1111122 
TCOON,ioos:station:TCOON:524:1,2015-01-05T07:42:00Z,29.8672,-93.9310,1.368,1111122 
TCOON,ioos:station:TCOON:524:1,2015-01-05T08:12:00Z,29.8672,-93.9310,1.388,1111122 
TCOON,ioos:station:TCOON:524:1,2015-01-05T09:12:00Z,29.8672,-93.9310,1.351,1111122 
TCOON,ioos:station:TCOON:524:1,2015-01-05T10:12:00Z,29.8672,-93.9310,1.365,1111122 
TCOON,ioos:station:TCOON:524:1,2015-01-05T11:12:00Z,29.8672,-93.9310,1.314,1111122 
TCOON,ioos:station:TCOON:524:1,2015-01-05T12:12:00Z,29.8672,-93.9310,1.283,1111122 
TCOON,ioos:station:TCOON:524:1,2015-01-05T13:18:00Z,29.8672,-93.9310,1.2,1111122 
TCOON,ioos:station:TCOON:524:1,2015-01-05T14:18:00Z,29.8672,-93.9310,1.178,1111122 
TCOON,ioos:station:TCOON:524:1,2015-01-05T15:12:00Z,29.8672,-93.9310,1.097,1111122 
TCOON,ioos:station:TCOON:524:1,2015-01-05T16:18:00Z,29.8672,-93.9310,1.097,1111122 
TCOON,ioos:station:TCOON:524:1,2015-01-05T17:12:00Z,29.8672,-93.9310,1.1,1111122 
TCOON,ioos:station:TCOON:524:1,2015-01-05T18:18:00Z,29.8672,-93.9310,1.159,1111122 
TCOON,ioos:station:TCOON:524:1,2015-01-05T19:18:00Z,29.8672,-93.9310,1.198,1111122 
TCOON,ioos:station:TCOON:524:1,2015-01-05T20:18:00Z,29.8672,-93.9310,1.266,1111122 
TCOON,ioos:station:TCOON:524:1,2015-01-05T21:18:00Z,29.8672,-93.9310,1.38,1111122 
TCOON,ioos:station:TCOON:524:1,2015-01-05T22:18:00Z,29.8672,-93.9310,1.447,1111122 
TCOON,ioos:station:TCOON:524:1,2015-01-05T23:18:00Z,29.8672,-93.9310,1.475,1111122 
TCOON,ioos:station:TCOON:524:1,2015-01-06T00:12:00Z,29.8672,-93.9310,1.518,1111122 
TCOON,ioos:station:TCOON:524:1,2015-01-06T01:18:00Z,29.8672,-93.9310,1.553,1111122 
TCOON,ioos:station:TCOON:524:1,2015-01-06T02:18:00Z,29.8672,-93.9310,1.568,1111122 
TCOON,ioos:station:TCOON:524:1,2015-01-06T03:12:00Z,29.8672,-93.9310,1.603,1111122 
TCOON,ioos:station:TCOON:524:1,2015-01-06T04:18:00Z,29.8672,-93.9310,1.614,1111122 
TCOON,ioos:station:TCOON:524:1,2015-01-06T05:12:00Z,29.8672,-93.9310,1.59,1111122 
TCOON,ioos:station:TCOON:524:1,2015-01-06T06:18:00Z,29.8672,-93.9310,1.621,1111122 
TCOON,ioos:station:TCOON:524:1,2015-01-06T07:12:00Z,29.8672,-93.9310,1.61,1111122 
TCOON,ioos:station:TCOON:524:1,2015-01-06T08:12:00Z,29.8672,-93.9310,1.626,1111122 
TCOON,ioos:station:TCOON:524:1,2015-01-06T09:18:00Z,29.8672,-93.9310,1.647,1111122 
TCOON,ioos:station:TCOON:524:1,2015-01-06T10:12:00Z,29.8672,-93.9310,1.633,1111122 
TCOON,ioos:station:TCOON:524:1,2015-01-06T11:12:00Z,29.8672,-93.9310,1.615,1111122 
TCOON,ioos:station:TCOON:524:1,2015-01-06T12:12:00Z,29.8672,-93.9310,1.597,1111122 
TCOON,ioos:station:TCOON:524:1,2015-01-06T13:12:00Z,29.8672,-93.9310,1.54,1111122 
TCOON,ioos:station:TCOON:524:1,2015-01-06T14:12:00Z,29.8672,-93.9310,1.461,1111122 
TCOON,ioos:station:TCOON:524:1,2015-01-06T15:12:00Z,29.8672,-93.9310,1.268,1111122 
TCOON,ioos:station:TCOON:524:1,2015-01-06T16:18:00Z,29.8672,-93.9310,1.307,1111122 
TCOON,ioos:station:TCOON:524:1,2015-01-06T17:12:00Z,29.8672,-93.9310,1.27,1111122 
TCOON,ioos:station:TCOON:524:1,2015-01-06T18:12:00Z,29.8672,-93.9310,1.264,1111122 
TCOON,ioos:station:TCOON:524:1,2015-01-06T19:12:00Z,29.8672,-93.9310,1.319,1111122 
TCOON,ioos:station:TCOON:524:1,2015-01-06T20:18:00Z,29.8672,-93.9310,1.392,1111122 
TCOON,ioos:station:TCOON:524:1,2015-01-06T21:12:00Z,29.8672,-93.9310,1.383,1111122 
TCOON,ioos:station:TCOON:524:1,2015-01-06T22:18:00Z,29.8672,-93.9310,1.484,1111122 
TCOON,ioos:station:TCOON:524:1,2015-01-06T23:18:00Z,29.8672,-93.9310,1.511,1111122 
TCOON,ioos:station:TCOON:524:1,2015-01-07T00:12:00Z,29.8672,-93.9310,1.581,1111122 
TCOON,ioos:station:TCOON:524:1,2015-01-07T01:18:00Z,29.8672,-93.9310,1.59,1111122 
TCOON,ioos:station:TCOON:524:1,2015-01-07T02:18:00Z,29.8672,-93.9310,1.566,1111122 
TCOON,ioos:station:TCOON:524:1,2015-01-07T03:18:00Z,29.8672,-93.9310,1.593,1111122 
TCOON,ioos:station:TCOON:524:1,2015-01-07T04:18:00Z,29.8672,-93.9310,1.602,1111122 
TCOON,ioos:station:TCOON:524:1,2015-01-07T05:12:00Z,29.8672,-93.9310,1.578,1111122 
TCOON,ioos:station:TCOON:524:1,2015-01-07T06:24:00Z,29.8672,-93.9310,1.586,1111122 
TCOON,ioos:station:TCOON:524:1,2015-01-07T07:12:00Z,29.8672,-93.9310,1.58,1111122 
TCOON,ioos:station:TCOON:524:1,2015-01-07T08:12:00Z,29.8672,-93.9310,1.608,1111122 
TCOON,ioos:station:TCOON:524:1,2015-01-07T09:12:00Z,29.8672,-93.9310,1.606,1111122 
TCOON,ioos:station:TCOON:524:1,2015-01-07T10:12:00Z,29.8672,-93.9310,1.599,1111122 
TCOON,ioos:station:TCOON:524:1,2015-01-07T11:12:00Z,29.8672,-93.9310,1.587,1111122 
TCOON,ioos:station:TCOON:524:1,2015-01-07T12:12:00Z,29.8672,-93.9310,1.575,1111122 
TCOON,ioos:station:TCOON:524:1,2015-01-07T13:12:00Z,29.8672,-93.9310,1.529,1111122 
TCOON,ioos:station:TCOON:524:1,2015-01-07T14:24:00Z,29.8672,-93.9310,1.436,1111122 
TCOON,ioos:station:TCOON:524:1,2015-01-07T15:12:00Z,29.8672,-93.9310,1.361,1111122 
TCOON,ioos:station:TCOON:524:1,2015-01-07T16:12:00Z,29.8672,-93.9310,1.339,1111122 
TCOON,ioos:station:TCOON:524:1,2015-01-07T17:18:00Z,29.8672,-93.9310,1.285,1111122 
TCOON,ioos:station:TCOON:524:1,2015-01-07T18:12:00Z,29.8672,-93.9310,1.28,1111122 
TCOON,ioos:station:TCOON:524:1,2015-01-07T19:18:00Z,29.8672,-93.9310,1.288,1111122 
TCOON,ioos:station:TCOON:524:1,2015-01-07T20:18:00Z,29.8672,-93.9310,1.322,1111122 
TCOON,ioos:station:TCOON:524:1,2015-01-07T21:12:00Z,29.8672,-93.9310,1.353,1111122 
TCOON,ioos:station:TCOON:524:1,2015-01-07T22:18:00Z,29.8672,-93.9310,1.395,1111122 
TCOON,ioos:station:TCOON:524:1,2015-01-07T23:12:00Z,29.8672,-93.9310,1.386,1111122 
TCOON,ioos:station:TCOON:524:1,2015-01-08T00:12:00Z,29.8672,-93.9310,1.407,1111122 
TCOON,ioos:station:TCOON:524:1,2015-01-08T01:18:00Z,29.8672,-93.9310,1.392,1111122 
TCOON,ioos:station:TCOON:524:1,2015-01-08T02:18:00Z,29.8672,-93.9310,1.344,1111122 
TCOON,ioos:station:TCOON:524:1,2015-01-08T03:12:00Z,29.8672,-93.9310,1.341,1111122 
TCOON,ioos:station:TCOON:524:1,2015-01-08T04:18:00Z,29.8672,-93.9310,1.279,1111122 
TCOON,ioos:station:TCOON:524:1,2015-01-08T05:18:00Z,29.8672,-93.9310,1.237,1111122 
TCOON,ioos:station:TCOON:524:1,2015-01-08T07:00:00Z,29.8672,-93.9310,1.289,1111122 
TCOON,ioos:station:TCOON:524:1,2015-01-08T07:12:00Z,29.8672,-93.9310,1.287,1111122 
TCOON,ioos:station:TCOON:524:1,2015-01-08T08:12:00Z,29.8672,-93.9310,1.256,1111122 
TCOON,ioos:station:TCOON:524:1,2015-01-08T09:12:00Z,29.8672,-93.9310,1.331,1111122 
TCOON,ioos:station:TCOON:524:1,2015-01-08T10:12:00Z,29.8672,-93.9310,1.337,1111122 
TCOON,ioos:station:TCOON:524:1,2015-01-08T11:12:00Z,29.8672,-93.9310,1.333,1111122 
TCOON,ioos:station:TCOON:524:1,2015-01-08T12:18:00Z,29.8672,-93.9310,1.369,1111122 
TCOON,ioos:station:TCOON:524:1,2015-01-08T13:12:00Z,29.8672,-93.9310,1.349,1111122 
TCOON,ioos:station:TCOON:524:1,2015-01-08T14:12:00Z,29.8672,-93.9310,1.32,1111122 
TCOON,ioos:station:TCOON:524:1,2015-01-08T15:18:00Z,29.8672,-93.9310,1.267,1111122 
TCOON,ioos:station:TCOON:524:1,2015-01-08T16:18:00Z,29.8672,-93.9310,1.202,1111122 
TCOON,ioos:station:TCOON:524:1,2015-01-08T17:12:00Z,29.8672,-93.9310,1.244,1111122 
TCOON,ioos:station:TCOON:524:1,2015-01-08T18:12:00Z,29.8672,-93.9310,1.275,1111122 
TCOON,ioos:station:TCOON:524:1,2015-01-08T19:18:00Z,29.8672,-93.9310,1.278,1111122 
TCOON,ioos:station:TCOON:524:1,2015-01-08T20:12:00Z,29.8672,-93.9310,1.343,1111122 
TCOON,ioos:station:TCOON:524:1,2015-01-08T21:12:00Z,29.8672,-93.9310,1.391,1111122 
TCOON,ioos:station:TCOON:524:1,2015-01-08T22:12:00Z,29.8672,-93.9310,1.438,1111122 
TCOON,ioos:station:TCOON:524:1,2015-01-08T23:12:00Z,29.8672,-93.9310,1.491,1111122 
TCOON,ioos:station:TCOON:524:1,2015-01-09T00:18:00Z,29.8672,-93.9310,1.537,1111122 
TCOON,ioos:station:TCOON:524:1,2015-01-09T01:18:00Z,29.8672,-93.9310,1.565,1111122 
TCOON,ioos:station:TCOON:524:1,2015-01-09T02:18:00Z,29.8672,-93.9310,1.588,1111122 
TCOON,ioos:station:TCOON:524:1,2015-01-09T03:18:00Z,29.8672,-93.9310,1.606,1111122 
TCOON,ioos:station:TCOON:524:1,2015-01-09T04:18:00Z,29.8672,-93.9310,1.647,1111122 
TCOON,ioos:station:TCOON:524:1,2015-01-09T05:12:00Z,29.8672,-93.9310,1.637,1111122 
TCOON,ioos:station:TCOON:524:1,2015-01-09T06:54:00Z,29.8672,-93.9310,1.676,1111122 
TCOON,ioos:station:TCOON:524:1,2015-01-09T07:18:00Z,29.8672,-93.9310,1.681,1111122 
TCOON,ioos:station:TCOON:524:1,2015-01-09T08:18:00Z,29.8672,-93.9310,1.673,1111122 
TCOON,ioos:station:TCOON:524:1,2015-01-09T09:12:00Z,29.8672,-93.9310,1.65,1111122 
TCOON,ioos:station:TCOON:524:1,2015-01-09T10:12:00Z,29.8672,-93.9310,1.651,1111122 
TCOON,ioos:station:TCOON:524:1,2015-01-09T11:12:00Z,29.8672,-93.9310,1.621,1111122 
TCOON,ioos:station:TCOON:524:1,2015-01-09T12:12:00Z,29.8672,-93.9310,1.612,1111122 
TCOON,ioos:station:TCOON:524:1,2015-01-09T13:18:00Z,29.8672,-93.9310,1.558,1111122 
TCOON,ioos:station:TCOON:524:1,2015-01-09T14:12:00Z,29.8672,-93.9310,1.512,1111122 
TCOON,ioos:station:TCOON:524:1,2015-01-09T15:12:00Z,29.8672,-93.9310,1.496,1111122 
TCOON,ioos:station:TCOON:524:1,2015-01-09T16:12:00Z,29.8672,-93.9310,1.478,1111122 
TCOON,ioos:station:TCOON:524:1,2015-01-09T17:12:00Z,29.8672,-93.9310,1.464,1111122 
TCOON,ioos:station:TCOON:524:1,2015-01-09T18:12:00Z,29.8672,-93.9310,1.396,1111122 
TCOON,ioos:station:TCOON:524:1,2015-01-09T19:12:00Z,29.8672,-93.9310,1.348,1111122 
TCOON,ioos:station:TCOON:524:1,2015-01-09T20:12:00Z,29.8672,-93.9310,1.375,1111122 
TCOON,ioos:station:TCOON:524:1,2015-01-09T21:18:00Z,29.8672,-93.9310,1.345,1111122 
TCOON,ioos:station:TCOON:524:1,2015-01-09T22:18:00Z,29.8672,-93.9310,1.384,1111122 
TCOON,ioos:station:TCOON:524:1,2015-01-09T23:12:00Z,29.8672,-93.9310,1.43,1111122 
TCOON,ioos:station:TCOON:524:1,2015-01-10T00:18:00Z,29.8672,-93.9310,1.494,1111122 
TCOON,ioos:station:TCOON:524:1,2015-01-10T01:18:00Z,29.8672,-93.9310,1.5,1111122 
TCOON,ioos:station:TCOON:524:1,2015-01-10T02:18:00Z,29.8672,-93.9310,1.529,1111122 
TCOON,ioos:station:TCOON:524:1,2015-01-10T03:12:00Z,29.8672,-93.9310,1.553,1111122 
TCOON,ioos:station:TCOON:524:1,2015-01-10T04:18:00Z,29.8672,-93.9310,1.524,1111122 
TCOON,ioos:station:TCOON:524:1,2015-01-10T05:12:00Z,29.8672,-93.9310,1.509,1111122 
TCOON,ioos:station:TCOON:524:1,2015-01-10T06:18:00Z,29.8672,-93.9310,1.495,1111122 
TCOON,ioos:station:TCOON:524:1,2015-01-10T07:18:00Z,29.8672,-93.9310,1.476,1111122 
TCOON,ioos:station:TCOON:524:1,2015-01-10T08:18:00Z,29.8672,-93.9310,1.501,1111122 
TCOON,ioos:station:TCOON:524:1,2015-01-10T09:18:00Z,29.8672,-93.9310,1.503,1111122 
TCOON,ioos:station:TCOON:524:1,2015-01-10T10:18:00Z,29.8672,-93.9310,1.527,1111122 
TCOON,ioos:station:TCOON:524:1,2015-01-10T11:12:00Z,29.8672,-93.9310,1.543,1111122 
TCOON,ioos:station:TCOON:524:1,2015-01-10T12:12:00Z,29.8672,-93.9310,1.576,1111122 
TCOON,ioos:station:TCOON:524:1,2015-01-10T13:12:00Z,29.8672,-93.9310,1.57,1111122 
TCOON,ioos:station:TCOON:524:1,2015-01-10T14:12:00Z,29.8672,-93.9310,1.569,1111122 
TCOON,ioos:station:TCOON:524:1,2015-01-10T15:12:00Z,29.8672,-93.9310,1.535,1111122 
TCOON,ioos:station:TCOON:524:1,2015-01-10T16:12:00Z,29.8672,-93.9310,1.575,1111122 
TCOON,ioos:station:TCOON:524:1,2015-01-10T17:18:00Z,29.8672,-93.9310,1.535,1111122 
TCOON,ioos:station:TCOON:524:1,2015-01-10T18:12:00Z,29.8672,-93.9310,1.47,1111122 
TCOON,ioos:station:TCOON:524:1,2015-01-10T19:12:00Z,29.8672,-93.9310,1.468,1111122 
TCOON,ioos:station:TCOON:524:1,2015-01-10T20:12:00Z,29.8672,-93.9310,1.493,1111122 
TCOON,ioos:station:TCOON:524:1,2015-01-10T21:12:00Z,29.8672,-93.9310,1.503,1111122 
TCOON,ioos:station:TCOON:524:1,2015-01-10T22:18:00Z,29.8672,-93.9310,1.546,1111122 
TCOON,ioos:station:TCOON:524:1,2015-01-10T23:12:00Z,29.8672,-93.9310,1.559,1111122 
TCOON,ioos:station:TCOON:524:1,2015-01-11T00:12:00Z,29.8672,-93.9310,1.601,1111122 
TCOON,ioos:station:TCOON:524:1,2015-01-11T01:18:00Z,29.8672,-93.9310,1.611,1111122 
TCOON,ioos:station:TCOON:524:1,2015-01-11T02:18:00Z,29.8672,-93.9310,1.709,1111122 
TCOON,ioos:station:TCOON:524:1,2015-01-11T03:12:00Z,29.8672,-93.9310,1.689,1111122 
TCOON,ioos:station:TCOON:524:1,2015-01-11T04:18:00Z,29.8672,-93.9310,1.71,1111122 
TCOON,ioos:station:TCOON:524:1,2015-01-11T05:18:00Z,29.8672,-93.9310,1.699,1111122 
TCOON,ioos:station:TCOON:524:1,2015-01-11T06:18:00Z,29.8672,-93.9310,1.775,1111122 
TCOON,ioos:station:TCOON:524:1,2015-01-11T07:12:00Z,29.8672,-93.9310,1.738,1111122 
TCOON,ioos:station:TCOON:524:1,2015-01-11T08:12:00Z,29.8672,-93.9310,1.798,1111122 
TCOON,ioos:station:TCOON:524:1,2015-01-11T09:18:00Z,29.8672,-93.9310,1.802,1111122 
TCOON,ioos:station:TCOON:524:1,2015-01-11T10:12:00Z,29.8672,-93.9310,1.799,1111122 
TCOON,ioos:station:TCOON:524:1,2015-01-11T11:12:00Z,29.8672,-93.9310,1.808,1111122 
TCOON,ioos:station:TCOON:524:1,2015-01-11T12:12:00Z,29.8672,-93.9310,1.791,1111122 
TCOON,ioos:station:TCOON:524:1,2015-01-11T13:12:00Z,29.8672,-93.9310,1.803,1111122 
TCOON,ioos:station:TCOON:524:1,2015-01-11T14:12:00Z,29.8672,-93.9310,1.824,1111122 
TCOON,ioos:station:TCOON:524:1,2015-01-11T15:12:00Z,29.8672,-93.9310,1.849,1111122 
TCOON,ioos:station:TCOON:524:1,2015-01-11T16:12:00Z,29.8672,-93.9310,1.867,1111122 
TCOON,ioos:station:TCOON:524:1,2015-01-11T17:12:00Z,29.8672,-93.9310,1.822,1111122 
TCOON,ioos:station:TCOON:524:1,2015-01-11T18:12:00Z,29.8672,-93.9310,1.775,1111122 
TCOON,ioos:station:TCOON:524:1,2015-01-11T19:12:00Z,29.8672,-93.9310,1.761,1111122 
TCOON,ioos:station:TCOON:524:1,2015-01-11T20:18:00Z,29.8672,-93.9310,1.766,1111122 
TCOON,ioos:station:TCOON:524:1,2015-01-11T21:12:00Z,29.8672,-93.9310,1.778,1111122 
TCOON,ioos:station:TCOON:524:1,2015-01-11T22:18:00Z,29.8672,-93.9310,1.762,1111122 
TCOON,ioos:station:TCOON:524:1,2015-01-11T23:12:00Z,29.8672,-93.9310,1.785,1111122 
TCOON,ioos:station:TCOON:524:1,2015-01-12T00:18:00Z,29.8672,-93.9310,1.797,1111122 
TCOON,ioos:station:TCOON:524:1,2015-01-12T01:12:00Z,29.8672,-93.9310,1.831,1111122 
TCOON,ioos:station:TCOON:524:1,2015-01-12T02:18:00Z,29.8672,-93.9310,1.864,1111122 
TCOON,ioos:station:TCOON:524:1,2015-01-12T03:12:00Z,29.8672,-93.9310,1.875,1111122 
TCOON,ioos:station:TCOON:524:1,2015-01-12T04:18:00Z,29.8672,-93.9310,1.886,1111122 
TCOON,ioos:station:TCOON:524:1,2015-01-12T05:18:00Z,29.8672,-93.9310,1.878,1111122 
TCOON,ioos:station:TCOON:524:1,2015-01-12T06:18:00Z,29.8672,-93.9310,1.884,1111122 
TCOON,ioos:station:TCOON:524:1,2015-01-12T07:18:00Z,29.8672,-93.9310,1.793,1111122 
TCOON,ioos:station:TCOON:524:1,2015-01-12T08:18:00Z,29.8672,-93.9310,1.738,1111122 
TCOON,ioos:station:TCOON:524:1,2015-01-12T09:12:00Z,29.8672,-93.9310,1.687,1111122 
TCOON,ioos:station:TCOON:524:1,2015-01-12T10:12:00Z,29.8672,-93.9310,1.698,1111122 
TCOON,ioos:station:TCOON:524:1,2015-01-12T11:12:00Z,29.8672,-93.9310,1.671,1111122 
TCOON,ioos:station:TCOON:524:1,2015-01-12T12:12:00Z,29.8672,-93.9310,1.659,1111122 
TCOON,ioos:station:TCOON:524:1,2015-01-12T13:12:00Z,29.8672,-93.9310,1.655,1111122 
TCOON,ioos:station:TCOON:524:1,2015-01-12T14:12:00Z,29.8672,-93.9310,1.657,1111122 
TCOON,ioos:station:TCOON:524:1,2015-01-12T15:12:00Z,29.8672,-93.9310,1.652,1111122 
TCOON,ioos:station:TCOON:524:1,2015-01-12T16:12:00Z,29.8672,-93.9310,1.649,1111122 
TCOON,ioos:station:TCOON:524:1,2015-01-12T17:18:00Z,29.8672,-93.9310,1.613,1111122 
TCOON,ioos:station:TCOON:524:1,2015-01-12T18:18:00Z,29.8672,-93.9310,1.585,1111122 
TCOON,ioos:station:TCOON:524:1,2015-01-12T19:12:00Z,29.8672,-93.9310,1.568,1111122 
TCOON,ioos:station:TCOON:524:1,2015-01-12T20:12:00Z,29.8672,-93.9310,1.546,1111122 
TCOON,ioos:station:TCOON:524:1,2015-01-12T21:18:00Z,29.8672,-93.9310,1.524,1111122 
TCOON,ioos:station:TCOON:524:1,2015-01-12T22:18:00Z,29.8672,-93.9310,1.507,1111122 
TCOON,ioos:station:TCOON:524:1,2015-01-12T23:18:00Z,29.8672,-93.9310,1.508,1111122 